Location: Borowce
(50.8255°N, 19.6209°E)
Time: 21:45:36
(UTC+00:00)

Cosmos 2082 Rocket - Pass Details

Date: 19 May 2025
Orbit: 832 x 853 km, 71.0° (Epoch: 16 June)

Event Time Altitude Azimuth Distance (km) Brightness Sun altitude
Exits shadow 21:41:57 14° 219° (SW) 2,148 4.0 -18.1°
Maximum altitude 21:46:45 71° 302° (WNW) 886 2.4 -18.3°
Drops below altitude 10° 21:52:23 10° 27° (NNE) 2,460 5.4 -18.5°
Sets 21:54:51 0° 30° (NNE) 3,401 6.1 -18.6°
